Home > Time Zones > World Clock > Weather > Norway > Ås > Past weeks

Flag for Norway Weather past 2 weeks in Ås, Norway

Now
45 °F

Light rain. Low clouds.


Feels Like: 34 °F
Forecast: 38 / 46 °F
Wind: 35 mph from Southwest

Location: Oslo / Fornebu


UV Index: 0 (Low)

Visibility: 4 mi


Pressure: 29.83 "Hg

Humidity: 100%

Dew point: 45 °F

Location of ÅsLocation

Historic Weather in Ås

°F

Ås temperature yesterday

Maximum temperature yesterday: 45 °F (at 9:50 AM)
Minimum temperature yesterday: 39 °F (at 12:50 AM)
Average temperature yesterday: 44 °F

Past Weeks' High & Low Weather Summary

 TemperatureHumidityPressure
High50 °F (Apr 7, 2:50 PM)100% (Apr 5, 4:20 PM)30.33 "Hg (Apr 5, 4:20 PM)
Low37 °F (Apr 14, 1:20 PM)56% (Apr 14, 8:20 PM)29.12 "Hg (Apr 12, 7:20 PM)
Average45 °F81%29.75 "Hg
* Reported Apr 1 8:20 PM — Apr 16 8:20 PM, Ås, Weather by CustomWeather, © 2014

Note: Actual official high and low records may vary slightly from our data, if they occured in-between our weather recording intervals... More about our weather records

Advertising

Historic Weather Conditions — Data for Previous 24 hours

 ConditionsComfort  
Time TempWeatherWind HumidityBarometerVisibility
8:20 PM
Apr 16
45 °FLight rain. Partly sunny.35 mph100%29.86 "Hg5 mi
7:50 PM45 °FSprinkles. Partly sunny.35 mph100%29.86 "HgN/A
7:20 PM45 °FSprinkles. Low clouds.36 mph100%29.86 "HgN/A
6:50 PM46 °FLight rain. Low clouds.35 mph93%29.89 "Hg4 mi
6:20 PM46 °FLight rain. Low clouds.35 mph93%29.89 "Hg3 mi
5:50 PM46 °FSprinkles. Partly sunny.35 mph93%29.92 "Hg4 mi
5:20 PM46 °FLight rain. Partly sunny.35 mph93%29.92 "HgN/A
4:50 PM46 °FSprinkles. Partly sunny.33 mph93%29.92 "Hg4 mi
4:20 PM46 °FSprinkles. Partly sunny.33 mph100%29.95 "Hg4 mi
3:50 PM46 °FLight rain. Fog.33 mph100%29.95 "Hg3 mi
3:20 PM46 °FLight rain. Fog.33 mph100%29.95 "Hg2 mi
2:50 PM46 °FDrizzle. Overcast.35 mph100%29.95 "Hg6 mi
2:20 PM46 °FDrizzle. Overcast.36 mph100%29.95 "Hg6 mi
1:50 PM48 °FLight rain. Overcast.36 mph94%29.95 "Hg4 mi
1:20 PM48 °FLight rain. Overcast.36 mph87%29.95 "Hg4 mi
12:50 PM46 °FSprinkles. Overcast.32 mph93%29.98 "HgN/A
12:20 PM46 °FSprinkles. Partly sunny.32 mph93%29.98 "Hg6 mi
11:50 AM46 °FSprinkles. Overcast.35 mph93%29.98 "Hg4 mi
11:20 AM46 °FSprinkles. Fog.35 mph93%29.98 "Hg3 mi
10:50 AM46 °FLight rain. Overcast.36 mph93%29.98 "Hg4 mi
10:20 AM46 °FPartly sunny.38 mph93%29.98 "Hg6 mi
9:50 AM46 °FPartly sunny.39 mph93%29.98 "HgN/A
9:20 AM46 °FOvercast.40 mph93%29.98 "HgN/A
8:50 AM46 °FPartly sunny.41 mph93%29.98 "HgN/A
8:20 AM46 °FPartly sunny.40 mph93%30.01 "HgN/A
7:50 AM46 °FBroken clouds.41 mph93%30.01 "HgN/A
7:20 AM46 °FPartly sunny.43 mph87%30.01 "HgN/A
6:50 AM46 °FPassing clouds.41 mph87%30.01 "HgN/A
6:20 AM45 °FPassing clouds.43 mph93%30.01 "HgN/A
5:50 AM45 °FPassing clouds.44 mph93%30.04 "HgN/A
4:50 AM45 °FPassing clouds.43 mph93%30.07 "HgN/A
4:20 AM45 °FPassing clouds.40 mph93%30.07 "HgN/A
3:50 AM45 °FPassing clouds.40 mph93%30.09 "HgN/A
3:20 AM45 °FPassing clouds.40 mph93%30.09 "HgN/A
2:50 AM45 °FPartly cloudy.38 mph93%30.09 "HgN/A
12:50 AM45 °FPartly cloudy.38 mph93%30.15 "HgN/A
12:20 AM45 °FPartly cloudy.32 mph93%30.15 "HgN/A
11:50 PM
Apr 15
45 °FPassing clouds.35 mph93%30.15 "HgN/A
10:50 PM45 °FPassing clouds.36 mph93%30.18 "HgN/A
10:20 PM45 °FPassing clouds.35 mph87%30.18 "HgN/A
9:50 PM45 °FPassing clouds.35 mph87%30.18 "HgN/A
9:20 PM45 °FPartly sunny.31 mph87%30.21 "HgN/A
Weather by CustomWeather, © 2014

See weather overview